Starlink 33813

operational
NORAD ID: 63585 Int'l Des: 2025-076 Owner: SPXS Country: US Constellation: starlink
LEOCIRCULAR

About Starlink 33813

Description loading...

Live Position

Loading 3D Globe...

Upcoming Passes

Altitude History

Altitude vs Time

uPlot chart will show altitude changes over time

Two-Line Element Set

1 63585U 25076S 25304.80175353 .00031544 00000-0 11513-2 0 9993
2 63585 42.9993 329.1593 0001691 54.9683 305.1327 15.27568922 32125
Epoch: Oct 31, 2025 • Age: 9 hours

Current Status

Altitude 490.8 km
Velocity 7.62 km/s
Sub-Earth Point -26.43°S, 77.66°E
Launch Date Apr 14, 2025
Age 0.5 years
Type internet

Technical Details

Classification Payload
Mass 575.00 kg
Dry Mass 530.00 kg
Total Mass 575.00 kg
Length 0.30 m
Diameter 4.10 m
Span 29.00 m
Shape Box + pan
Manufacturer SPXS
Bus Type Starlink V2MO
Phase Status In Orbit
Owner/State SPXS/US

Large Constellations

Loading constellations...